Location: Camerons Lookout
(40.9833°S, 175.9333°E)
Time: 07:55:55
(UTC+00:00)

Cosmos 292 Rocket - Pass Details

Date: 14 January 2026
Orbit: 663 x 681 km, 74.0° (Epoch: 14 February)

Event Time Altitude Azimuth Distance (km) Brightness Sun altitude
Rises 08:29:48 0° 1° (N) 3,008 6.7 -7.2°
Reaches altitude 10° 08:32:10 10° 8° (N) 2,106 5.9 -7.6°
Maximum altitude 08:36:36 41° 77° (ENE) 990 4.2 -8.2°
Drops below altitude 10° 08:41:08 10° 146° (SSE) 2,145 6.4 -8.9°
Sets 08:43:33 0° 153° (SSE) 3,071 7.3 -9.3°
